| time (UTC) | temp C | wind direction | speed KPH | gust KPH | rain 1hr cm | rain 24hr cm | rain mn cm | humidity % | barometer mb |
| 20260906222517 | 23 | 171 | 3.2 | 6.4 | 0.00 | 0.00 | 0.00 | 44 | 1013.2 |
| 20260906222016 | 23 | 170 | 3.2 | 6.4 | 0.00 | 0.00 | 0.00 | 44 | 1013.3 |
| 20260906221516 | 23 | 171 | 0.0 | 4.8 | 0.00 | 0.00 | 0.00 | 44 | 1013.1 |
| 20260906221016 | 24 | 171 | 0.0 | 3.2 | 0.00 | 0.00 | 0.00 | 44 | 1013.1 |
| 20260906220515 | 24 | 171 | 0.0 | 1.6 | 0.00 | 0.00 | 0.00 | 44 | 1013.0 |
| 20260906220015 | 24 | 171 | 0.0 | 6.4 | 0.00 | 0.00 | 0.00 | 44 | 1013.0 |
| 20260906215515 | 24 | 171 | 1.6 | 6.4 | 0.00 | 0.00 | 0.00 | 44 | 1013.2 |
| 20260906215014 | 24 | 63 | 0.0 | 3.2 | 0.00 | 0.00 | 0.00 | 44 | 1013.1 |
| 20260906214517 | 24 | 63 | 0.0 | 3.2 | 0.00 | 0.00 | 0.00 | 44 | 1013.2 |
| 20260906214021 | 23 | 63 | 0.0 | 6.4 | 0.00 | 0.00 | 0.00 | 44 | 1013.3 |
| 20260906213513 | 23 | 63 | 3.2 | 9.7 | 0.00 | 0.00 | 0.00 | 44 | 1013.4 |
| 20260906213018 | 23 | 335 | 1.6 | 9.7 | 0.00 | 0.00 | 0.00 | 44 | 1013.4 |
| 20260906212512 | 24 | 156 | 4.8 | 9.7 | 0.00 | 0.00 | 0.00 | 44 | 1013.5 |
| 20260906212013 | 24 | 156 | 1.6 | 9.7 | 0.00 | 0.00 | 0.00 | 43 | 1013.5 |
| 20260906211519 | 24 | 156 | 1.6 | 8.0 | 0.00 | 0.00 | 0.00 | 44 | 1013.6 |
| 20260906211015 | 23 | 156 | 1.6 | 8.0 | 0.00 | 0.00 | 0.00 | 43 | 1013.6 |
| 20260906210510 | 23 | 70 | 3.2 | 6.4 | 0.00 | 0.00 | 0.00 | 44 | 1013.8 |
| 20260906210010 | 23 | 70 | 0.0 | 8.0 | 0.00 | 0.00 | 0.00 | 45 | 1013.8 |
| 20260906205509 | 23 | 70 | 1.6 | 9.7 | 0.00 | 0.00 | 0.00 | 43 | 1013.9 |
| 20260906205008 | 23 | 70 | 3.2 | 9.7 | 0.00 | 0.00 | 0.00 | 42 | 1014.0 |
| 20260906204520 | 23 | 70 | 3.2 | 6.4 | 0.00 | 0.00 | 0.00 | 43 | 1014.0 |
| 20260906204009 | 23 | 70 | 1.6 | 6.4 | 0.00 | 0.00 | 0.00 | 41 | 1014.1 |
| 20260906203508 | 23 | 70 | 0.0 | 8.0 | 0.00 | 0.00 | 0.00 | 41 | 1013.9 |
| 20260906203008 | 23 | 70 | 3.2 | 8.0 | 0.00 | 0.00 | 0.00 | 41 | 1013.9 |
| 20260906202507 | 23 | 63 | 3.2 | 9.7 | 0.00 | 0.00 | 0.00 | 40 | 1013.9 |
| 20260906202009 | 24 | 74 | 3.2 | 9.7 | 0.00 | 0.00 | 0.00 | 39 | 1013.9 |
| 20260906201508 | 24 | 69 | 1.6 | 11.3 | 0.00 | 0.00 | 0.00 | 39 | 1014.0 |
| 20260906201007 | 24 | 69 | 0.0 | 14.5 | 0.00 | 0.00 | 0.00 | 38 | 1014.0 |
| 20260906200507 | 25 | 70 | 3.2 | 14.5 | 0.00 | 0.00 | 0.00 | 37 | 1013.8 |
| 20260906200007 | 25 | 72 | 3.2 | 11.3 | 0.00 | 0.00 | 0.00 | 36 | 1013.9 |
| 20260906195507 | 25 | 90 | 1.6 | 6.4 | 0.00 | 0.00 | 0.00 | 36 | 1013.9 |
| 20260906195008 | 25 | 46 | 1.6 | 8.0 | 0.00 | 0.00 | 0.00 | 37 | 1013.9 |
| 20260906194509 | 26 | 36 | 1.6 | 14.5 | 0.00 | 0.00 | 0.00 | 33 | 1013.9 |
| 20260906194009 | 26 | 45 | 4.8 | 14.5 | 0.00 | 0.00 | 0.00 | 31 | 1013.8 |
| 20260906193506 | 27 | 34 | 1.6 | 17.7 | 0.00 | 0.00 | 0.00 | 32 | 1013.8 |
| 20260906193006 | 27 | 42 | 6.4 | 17.7 | 0.00 | 0.00 | 0.00 | 31 | 1013.9 |
| 20260906192504 | 27 | 37 | 3.2 | 16.1 | 0.00 | 0.00 | 0.00 | 37 | 1013.9 |
| 20260906192005 | 27 | 73 | 4.8 | 12.9 | 0.00 | 0.00 | 0.00 | 37 | 1014.0 |
| 20260906191509 | 27 | 65 | 3.2 | 16.1 | 0.00 | 0.00 | 0.00 | 38 | 1014.1 |
| 20260906191003 | 27 | 56 | 3.2 | 16.1 | 0.00 | 0.00 | 0.00 | 37 | 1014.3 |
| 20260906190502 | 26 | 57 | 3.2 | 16.1 | 0.00 | 0.00 | 0.00 | 39 | 1014.3 |
| 20260906190001 | 26 | 77 | 4.8 | 14.5 | 0.00 | 0.00 | 0.00 | 38 | 1014.4 |
| 20260906185501 | 26 | 23 | 3.2 | 12.9 | 0.00 | 0.00 | 0.00 | 35 | 1014.4 |
| 20260906185101 | 26 | 64 | 3.2 | 14.5 | 0.00 | 0.00 | 0.00 | 39 | 1014.5 |
| 20260906184600 | 25 | 52 | 3.2 | 17.7 | 0.00 | 0.00 | 0.00 | 39 | 1014.6 |
| 20260906184100 | 26 | 57 | 3.2 | 17.7 | 0.00 | 0.00 | 0.00 | 36 | 1014.6 |
| 20260906183600 | 26 | 77 | 6.4 | 14.5 | 0.00 | 0.00 | 0.00 | 33 | 1014.7 |
| 20260906183108 | 26 | 38 | 3.2 | 11.3 | 0.00 | 0.00 | 0.00 | 36 | 1014.7 |
| 20260906182557 | 25 | 1 | 1.6 | 11.3 | 0.00 | 0.00 | 0.00 | 39 | 1014.9 |
| 20260906182057 | 25 | 74 | 3.2 | 11.3 | 0.00 | 0.00 | 0.00 | 36 | 1014.9 |
| 20260906181631 | 25 | 104 | 6.4 | 11.3 | 0.00 | 0.00 | 0.00 | 35 | 1014.9 |
| 20260906181054 | 25 | 73 | 1.6 | 12.9 | 0.00 | 0.00 | 0.00 | 39 | 1015.0 |
| 20260906180554 | 25 | 13 | 3.2 | 12.9 | 0.00 | 0.00 | 0.00 | 39 | 1015.2 |
| 20260906180056 | 25 | 17 | 3.2 | 12.9 | 0.00 | 0.00 | 0.00 | 39 | 1015.2 |
| 20260906175554 | 25 | 80 | 3.2 | 14.5 | 0.00 | 0.00 | 0.00 | 39 | 1015.3 |
| 20260906175052 | 26 | 12 | 4.8 | 14.5 | 0.00 | 0.00 | 0.00 | 36 | 1015.2 |
| 20260906174553 | 26 | 46 | 3.2 | 11.3 | 0.00 | 0.00 | 0.00 | 38 | 1015.3 |
| 20260906174051 | 26 | 70 | 3.2 | 9.7 | 0.00 | 0.00 | 0.00 | 37 | 1015.3 |
| 20260906173549 | 25 | 30 | 1.6 | 9.7 | 0.00 | 0.00 | 0.00 | 39 | 1015.4 |
| 20260906173049 | 25 | 61 | 1.6 | 9.7 | 0.00 | 0.00 | 0.00 | 40 | 1015.4 |
| 20260906172548 | 24 | 34 | 0.0 | 16.1 | 0.00 | 0.00 | 0.00 | 44 | 1015.5 |
| 20260906172049 | 23 | 47 | 4.8 | 16.1 | 0.00 | 0.00 | 0.00 | 46 | 1015.6 |
| 20260906171600 | 25 | 81 | 4.8 | 12.9 | 0.00 | 0.00 | 0.00 | 43 | 1015.6 |
| 20260906171044 | 25 | 24 | 4.8 | 11.3 | 0.00 | 0.00 | 0.00 | 43 | 1015.6 |
| 20260906170543 | 25 | 61 | 1.6 | 11.3 | 0.00 | 0.00 | 0.00 | 42 | 1015.7 |
| 20260906170048 | 25 | 52 | 3.2 | 12.9 | 0.00 | 0.00 | 0.00 | 40 | 1015.6 |
| 20260906165544 | 25 | 15 | 1.6 | 14.5 | 0.00 | 0.00 | 0.00 | 40 | 1015.6 |
| 20260906165040 | 25 | 31 | 4.8 | 14.5 | 0.00 | 0.00 | 0.00 | 39 | 1015.7 |
| 20260906164543 | 25 | 42 | 1.6 | 9.7 | 0.00 | 0.00 | 0.00 | 40 | 1015.7 |
| 20260906164040 | 24 | 85 | 1.6 | 11.3 | 0.00 | 0.00 | 0.00 | 40 | 1015.7 |
| 20260906163535 | 23 | 10 | 1.6 | 11.3 | 0.00 | 0.00 | 0.00 | 42 | 1015.6 |
| 20260906163034 | 23 | 90 | 3.2 | 9.7 | 0.00 | 0.00 | 0.00 | 42 | 1015.7 |
| 20260906162533 | 23 | 73 | 3.2 | 8.0 | 0.00 | 0.00 | 0.00 | 43 | 1015.7 |
| 20260906162032 | 23 | 46 | 1.6 | 9.7 | 0.00 | 0.00 | 0.00 | 45 | 1015.6 |
| 20260906161532 | 23 | 67 | 3.2 | 9.7 | 0.00 | 0.00 | 0.00 | 46 | 1015.7 |
| 20260906161034 | 22 | 7 | 1.6 | 9.7 | 0.00 | 0.00 | 0.00 | 46 | 1015.7 |
| 20260906160531 | 22 | 77 | 3.2 | 9.7 | 0.00 | 0.00 | 0.00 | 46 | 1015.7 |
| 20260906160031 | 23 | 87 | 3.2 | 14.5 | 0.00 | 0.00 | 0.00 | 46 | 1015.5 |
| 20260906155530 | 23 | 54 | 4.8 | 14.5 | 0.00 | 0.00 | 0.00 | 50 | 1015.5 |
| 20260906155029 | 23 | 38 | 3.2 | 9.7 | 0.00 | 0.00 | 0.00 | 52 | 1015.5 |
| 20260906154537 | 23 | 352 | 3.2 | 9.7 | 0.00 | 0.00 | 0.00 | 51 | 1015.4 |
| 20260906154028 | 22 | 34 | 1.6 | 8.0 | 0.00 | 0.00 | 0.00 | 51 | 1015.4 |
| 20260906153525 | 22 | 65 | 0.0 | 8.0 | 0.00 | 0.00 | 0.00 | 50 | 1015.4 |
| 20260906153016 | 22 | 121 | 3.2 | 8.0 | 0.00 | 0.00 | 0.00 | 50 | 1015.4 |
| 20260906152512 | 22 | 66 | 1.6 | 8.0 | 0.00 | 0.00 | 0.00 | 50 | 1015.4 |
| 20260906152009 | 22 | 63 | 3.2 | 8.0 | 0.00 | 0.00 | 0.00 | 51 | 1015.3 |
| 20260906151508 | 21 | 326 | 0.0 | 3.2 | 0.00 | 0.00 | 0.00 | 53 | 1015.4 |
| 20260906151011 | 21 | 202 | 1.6 | 3.2 | 0.00 | 0.00 | 0.00 | 52 | 1015.5 |
| 20260906150506 | 21 | 32 | 0.0 | 3.2 | 0.00 | 0.00 | 0.00 | 52 | 1015.5 |
| 20260906150050 | 21 | 32 | 0.0 | 3.2 | 0.00 | 0.00 | 0.00 | 53 | 1015.5 |
| 20260906145548 | 20 | 32 | 0.0 | 3.2 | 0.00 | 0.00 | 0.00 | 53 | 1015.6 |
| 20260906145047 | 20 | 32 | 0.0 | 8.0 | 0.00 | 0.00 | 0.00 | 57 | 1015.6 |
| 20260906144605 | 20 | 32 | 0.0 | 8.0 | 0.00 | 0.00 | 0.00 | 56 | 1015.6 |
| 20260906144045 | 19 | 32 | 1.6 | 8.0 | 0.00 | 0.00 | 0.00 | 57 | 1015.5 |
| 20260906143546 | 18 | 32 | 0.0 | 4.8 | 0.00 | 0.00 | 0.00 | 58 | 1015.6 |
| 20260906143043 | 19 | 32 | 1.6 | 4.8 | 0.00 | 0.00 | 0.00 | 55 | 1015.6 |
| 20260906142542 | 20 | 32 | 0.0 | 4.8 | 0.00 | 0.00 | 0.00 | 52 | 1015.4 |
| 20260906142042 | 20 | 313 | 0.0 | 1.6 | 0.00 | 0.00 | 0.00 | 51 | 1015.3 |
| 20260906141541 | 20 | 313 | 0.0 | 3.2 | 0.00 | 0.00 | 0.00 | 52 | 1015.3 |
| 20260906141040 | 18 | 163 | 0.0 | 1.6 | 0.00 | 0.00 | 0.00 | 53 | 1015.2 |
| 20260906140539 | 17 | 163 | 0.0 | 0.0 | 0.00 | 0.00 | 0.00 | 50 | 1015.1 |
| 20260906140038 | 17 | 163 | 0.0 | 0.0 | 0.00 | 0.00 | 0.00 | 52 | 1015.1 |
| 20260906135537 | 16 | 163 | 0.0 | 0.0 | 0.00 | 0.00 | 0.00 | 56 | 1015.0 |
| 20260906135036 | 16 | 163 | 0.0 | 0.0 | 0.00 | 0.00 | 0.00 | 58 | 1015.0 |
| 20260906134536 | 16 | 163 | 0.0 | 0.0 | 0.00 | 0.00 | 0.00 | 60 | 1015.0 |
| 20260906134035 | 16 | 163 | 0.0 | 4.8 | 0.00 | 0.00 | 0.00 | 61 | 1015.0 |
| 20260906133532 | 16 | 163 | 1.6 | 4.8 | 0.00 | 0.00 | 0.00 | 63 | 1015.0 |
| 20260906133029 | 15 | 163 | 0.0 | 6.4 | 0.00 | 0.00 | 0.00 | 65 | 1015.1 |
| 20260906132528 | 15 | 150 | 3.2 | 6.4 | 0.00 | 0.00 | 0.00 | 65 | 1015.1 |
| 20260906132027 | 15 | 150 | 1.6 | 6.4 | 0.00 | 0.00 | 0.00 | 64 | 1015.1 |
| 20260906131526 | 15 | 221 | 3.2 | 4.8 | 0.00 | 0.00 | 0.00 | 63 | 1015.1 |
| 20260906131025 | 15 | 221 | 0.0 | 3.2 | 0.00 | 0.00 | 0.00 | 61 | 1015.1 |
| 20260906130525 | 15 | 221 | 0.0 | 1.6 | 0.00 | 0.00 | 0.00 | 59 | 1015.0 |
| 20260906130024 | 15 | 221 | 0.0 | 3.2 | 0.00 | 0.00 | 0.00 | 59 | 1014.9 |
| 20260906125523 | 15 | 221 | 0.0 | 4.8 | 0.00 | 0.00 | 0.00 | 60 | 1015.0 |
| 20260906125023 | 15 | 221 | 3.2 | 4.8 | 0.00 | 0.00 | 0.00 | 61 | 1014.9 |
| 20260906124524 | 15 | 221 | 1.6 | 4.8 | 0.00 | 0.00 | 0.00 | 63 | 1014.9 |
| 20260906124022 | 15 | 221 | 0.0 | 0.0 | 0.00 | 0.00 | 0.00 | 62 | 1014.9 |
| 20260906123521 | 15 | 221 | 0.0 | 1.6 | 0.00 | 0.00 | 0.00 | 63 | 1014.8 |
| 20260906123020 | 15 | 221 | 0.0 | 1.6 | 0.00 | 0.00 | 0.00 | 63 | 1014.7 |
| 20260906122520 | 15 | 221 | 0.0 | 4.8 | 0.00 | 0.00 | 0.00 | 63 | 1014.6 |
| 20260906122020 | 15 | 221 | 0.0 | 4.8 | 0.00 | 0.00 | 0.00 | 64 | 1014.6 |
| 20260906121518 | 15 | 221 | 0.0 | 1.6 | 0.00 | 0.00 | 0.00 | 65 | 1014.8 |
| 20260906121021 | 15 | 221 | 0.0 | 1.6 | 0.00 | 0.00 | 0.00 | 65 | 1014.6 |
| 20260906120517 | 15 | 221 | 0.0 | 1.6 | 0.00 | 0.00 | 0.00 | 65 | 1014.5 |
| 20260906120016 | 15 | 221 | 0.0 | 0.0 | 0.00 | 0.00 | 0.00 | 65 | 1014.5 |
| 20260906115515 | 15 | 221 | 0.0 | 1.6 | 0.00 | 0.00 | 0.00 | 65 | 1014.5 |
| 20260906115013 | 15 | 221 | 0.0 | 6.4 | 0.00 | 0.00 | 0.00 | 63 | 1014.5 |
| 20260906114528 | 15 | 221 | 1.6 | 6.4 | 0.00 | 0.00 | 0.00 | 59 | 1014.5 |
| 20260906114011 | 15 | 221 | 0.0 | 4.8 | 0.00 | 0.00 | 0.00 | 56 | 1014.4 |
| 20260906113511 | 16 | 221 | 0.0 | 4.8 | 0.00 | 0.00 | 0.00 | 55 | 1014.4 |
| 20260906113010 | 16 | 221 | 0.0 | 4.8 | 0.00 | 0.00 | 0.00 | 56 | 1014.3 |
| 20260906112510 | 16 | 221 | 1.6 | 4.8 | 0.00 | 0.00 | 0.00 | 55 | 1014.2 |
| 20260906112013 | 16 | 221 | 3.2 | 4.8 | 0.00 | 0.00 | 0.00 | 55 | 1014.2 |
| 20260906111509 | 16 | 221 | 1.6 | 4.8 | 0.00 | 0.00 | 0.00 | 54 | 1014.3 |
| 20260906111009 | 16 | 221 | 0.0 | 1.6 | 0.00 | 0.00 | 0.00 | 57 | 1014.3 |
| 20260906110509 | 16 | 221 | 0.0 | 4.8 | 0.00 | 0.00 | 0.00 | 58 | 1014.1 |
| 20260906110012 | 15 | 221 | 1.6 | 4.8 | 0.00 | 0.00 | 0.00 | 59 | 1014.1 |
| 20260906105509 | 15 | 221 | 0.0 | 1.6 | 0.00 | 0.00 | 0.00 | 61 | 1014.2 |
| 20260906105011 | 15 | 221 | 0.0 | 4.8 | 0.00 | 0.00 | 0.00 | 61 | 1014.3 |
| 20260906104508 | 15 | 221 | 1.6 | 4.8 | 0.00 | 0.00 | 0.00 | 61 | 1014.3 |
| 20260906104008 | 15 | 221 | 1.6 | 4.8 | 0.00 | 0.00 | 0.00 | 60 | 1014.3 |
| 20260906103507 | 15 | 221 | 3.2 | 8.0 | 0.00 | 0.00 | 0.00 | 59 | 1014.3 |
| 20260906103005 | 16 | 221 | 4.8 | 8.0 | 0.00 | 0.00 | 0.00 | 58 | 1014.3 |
| 20260906102508 | 16 | 221 | 3.2 | 6.4 | 0.00 | 0.00 | 0.00 | 59 | 1014.2 |
| 20260906102003 | 16 | 221 | 0.0 | 3.2 | 0.00 | 0.00 | 0.00 | 59 | 1014.4 |
| 20260906101502 | 16 | 221 | 0.0 | 1.6 | 0.00 | 0.00 | 0.00 | 56 | 1014.4 |
| 20260906101102 | 17 | 221 | 0.0 | 4.8 | 0.00 | 0.00 | 0.00 | 56 | 1014.4 |
| 20260906100605 | 17 | 221 | 0.0 | 4.8 | 0.00 | 0.00 | 0.00 | 53 | 1014.3 |
| 20260906100057 | 18 | 221 | 0.0 | 1.6 | 0.00 | 0.00 | 0.00 | 49 | 1014.3 |
| 20260906095600 | 18 | 221 | 0.0 | 1.6 | 0.00 | 0.00 | 0.00 | 48 | 1014.2 |
| 20260906095057 | 18 | 221 | 0.0 | 4.8 | 0.00 | 0.00 | 0.00 | 48 | 1014.2 |
| 20260906094613 | 18 | 221 | 1.6 | 4.8 | 0.00 | 0.00 | 0.00 | 48 | 1014.2 |
| 20260906094057 | 18 | 221 | 1.6 | 4.8 | 0.00 | 0.00 | 0.00 | 48 | 1014.2 |
| 20260906093557 | 18 | 221 | 0.0 | 3.2 | 0.00 | 0.00 | 0.00 | 49 | 1014.3 |
| 20260906093129 | 18 | 221 | 1.6 | 4.8 | 0.00 | 0.00 | 0.00 | 49 | 1014.3 |
| 20260906092556 | 18 | 221 | 1.6 | 6.4 | 0.00 | 0.00 | 0.00 | 49 | 1014.4 |
| 20260906092055 | 18 | 221 | 3.2 | 6.4 | 0.00 | 0.00 | 0.00 | 50 | 1014.3 |
| 20260906091606 | 18 | 221 | 4.8 | 6.4 | 0.00 | 0.00 | 0.00 | 50 | 1014.2 |
| 20260906091057 | 18 | 221 | 0.0 | 3.2 | 0.00 | 0.00 | 0.00 | 50 | 1014.1 |
| 20260906090554 | 18 | 221 | 0.0 | 3.2 | 0.00 | 0.00 | 0.00 | 51 | 1014.1 |
| 20260906090054 | 18 | 221 | 0.0 | 3.2 | 0.00 | 0.00 | 0.00 | 51 | 1014.1 |
| 20260906085555 | 18 | 221 | 0.0 | 0.0 | 0.00 | 0.00 | 0.00 | 49 | 1014.0 |
| 20260906085053 | 18 | 221 | 0.0 | 4.8 | 0.00 | 0.00 | 0.00 | 48 | 1013.9 |
| 20260906084552 | 18 | 221 | 0.0 | 3.2 | 0.00 | 0.00 | 0.00 | 48 | 1014.0 |
| 20260906084055 | 18 | 221 | 0.0 | 3.2 | 0.00 | 0.00 | 0.00 | 47 | 1013.9 |
| 20260906083551 | 18 | 221 | 0.0 | 3.2 | 0.00 | 0.00 | 0.00 | 46 | 1013.9 |
| 20260906083051 | 19 | 221 | 0.0 | 3.2 | 0.00 | 0.00 | 0.00 | 45 | 1013.7 |
| 20260906082550 | 19 | 221 | 0.0 | 4.8 | 0.00 | 0.00 | 0.00 | 45 | 1013.9 |
| 20260906082050 | 19 | 221 | 0.0 | 4.8 | 0.00 | 0.00 | 0.00 | 46 | 1013.9 |
| 20260906081550 | 19 | 221 | 1.6 | 6.4 | 0.00 | 0.00 | 0.00 | 46 | 1013.9 |
| 20260906081049 | 18 | 221 | 3.2 | 6.4 | 0.00 | 0.00 | 0.00 | 46 | 1013.9 |
| 20260906080549 | 18 | 221 | 0.0 | 1.6 | 0.00 | 0.00 | 0.00 | 47 | 1014.0 |
| 20260906080049 | 18 | 221 | 0.0 | 0.0 | 0.00 | 0.00 | 0.00 | 47 | 1014.1 |
| 20260906075548 | 18 | 221 | 0.0 | 0.0 | 0.00 | 0.00 | 0.00 | 47 | 1014.1 |
| 20260906075047 | 18 | 221 | 0.0 | 1.6 | 0.00 | 0.00 | 0.00 | 47 | 1014.1 |
| 20260906074546 | 18 | 221 | 0.0 | 1.6 | 0.00 | 0.00 | 0.00 | 47 | 1014.1 |
| 20260906074045 | 19 | 221 | 0.0 | 0.0 | 0.00 | 0.00 | 0.00 | 46 | 1014.1 |
| 20260906073543 | 19 | 221 | 0.0 | 0.0 | 0.00 | 0.00 | 0.00 | 45 | 1014.1 |
| 20260906073042 | 20 | 221 | 0.0 | 0.0 | 0.00 | 0.00 | 0.00 | 45 | 1014.1 |
| 20260906072542 | 20 | 221 | 0.0 | 0.0 | 0.00 | 0.00 | 0.00 | 44 | 1014.1 |
| 20260906072040 | 20 | 221 | 0.0 | 0.0 | 0.00 | 0.00 | 0.00 | 44 | 1014.2 |
| 20260906071539 | 20 | 221 | 0.0 | 0.0 | 0.00 | 0.00 | 0.00 | 44 | 1014.1 |
| 20260906071040 | 20 | 221 | 0.0 | 1.6 | 0.00 | 0.00 | 0.00 | 44 | 1014.0 |
| 20260906070540 | 20 | 221 | 0.0 | 1.6 | 0.00 | 0.00 | 0.00 | 43 | 1014.1 |
| 20260906070039 | 20 | 221 | 0.0 | 8.0 | 0.00 | 0.00 | 0.00 | 43 | 1014.0 |
| 20260906065538 | 20 | 221 | 3.2 | 8.0 | 0.00 | 0.00 | 0.00 | 43 | 1014.0 |
| 20260906065038 | 20 | 221 | 4.8 | 9.7 | 0.00 | 0.00 | 0.00 | 43 | 1014.0 |
| 20260906064536 | 20 | 221 | 4.8 | 14.5 | 0.00 | 0.00 | 0.00 | 43 | 1013.9 |
| 20260906064035 | 21 | 217 | 9.7 | 14.5 | 0.00 | 0.00 | 0.00 | 43 | 1014.0 |
| 20260906063535 | 21 | 217 | 4.8 | 8.0 | 0.00 | 0.00 | 0.00 | 42 | 1014.0 |
| 20260906063036 | 21 | 217 | 3.2 | 9.7 | 0.00 | 0.00 | 0.00 | 42 | 1014.1 |
| 20260906062537 | 21 | 217 | 6.4 | 17.7 | 0.00 | 0.00 | 0.00 | 42 | 1014.2 |
| 20260906062034 | 21 | 240 | 8.0 | 19.3 | 0.00 | 0.00 | 0.00 | 42 | 1014.1 |
| 20260906061532 | 20 | 206 | 12.9 | 19.3 | 0.00 | 0.00 | 0.00 | 42 | 1014.1 |
| 20260906061031 | 20 | 244 | 12.9 | 17.7 | 0.00 | 0.00 | 0.00 | 43 | 1014.0 |
| 20260906060533 | 20 | 235 | 8.0 | 17.7 | 0.00 | 0.00 | 0.00 | 43 | 1014.2 |
| 20260906060029 | 20 | 235 | 9.7 | 17.7 | 0.00 | 0.00 | 0.00 | 43 | 1014.3 |
| 20260906055528 | 21 | 282 | 6.4 | 16.1 | 0.00 | 0.00 | 0.00 | 42 | 1014.4 |
| 20260906055028 | 21 | 246 | 9.7 | 16.1 | 0.00 | 0.00 | 0.00 | 41 | 1014.6 |
| 20260906054529 | 21 | 252 | 6.4 | 19.3 | 0.00 | 0.00 | 0.00 | 41 | 1014.6 |
| 20260906054028 | 21 | 167 | 8.0 | 19.3 | 0.00 | 0.00 | 0.00 | 40 | 1014.7 |
| 20260906053528 | 21 | 190 | 12.9 | 27.4 | 0.00 | 0.00 | 0.00 | 40 | 1014.8 |
| 20260906053026 | 21 | 186 | 16.1 | 27.4 | 0.00 | 0.00 | 0.00 | 39 | 1015.0 |
| 20260906052526 | 21 | 151 | 17.7 | 25.7 | 0.00 | 0.00 | 0.00 | 39 | 1014.9 |
| 20260906052026 | 21 | 172 | 9.7 | 16.1 | 0.00 | 0.00 | 0.00 | 39 | 1014.9 |
| 20260906051526 | 21 | 124 | 3.2 | 11.3 | 0.00 | 0.00 | 0.00 | 38 | 1014.9 |
| 20260906051027 | 21 | 89 | 4.8 | 9.7 | 0.00 | 0.00 | 0.00 | 38 | 1014.9 |
| 20260906050525 | 21 | 34 | 0.0 | 4.8 | 0.00 | 0.00 | 0.00 | 38 | 1014.6 |
| 20260906050023 | 21 | 32 | 0.0 | 6.4 | 0.00 | 0.00 | 0.00 | 38 | 1014.5 |
| 20260906045522 | 21 | 174 | 0.0 | 6.4 | 0.00 | 0.00 | 0.00 | 37 | 1014.4 |
| 20260906045022 | 22 | 174 | 0.0 | 1.6 | 0.00 | 0.00 | 0.00 | 37 | 1014.3 |
| 20260906044522 | 22 | 174 | 0.0 | 9.7 | 0.00 | 0.00 | 0.00 | 36 | 1014.2 |
| 20260906044022 | 22 | 174 | 0.0 | 12.9 | 0.00 | 0.00 | 0.00 | 36 | 1014.2 |
| 20260906043521 | 22 | 174 | 6.4 | 17.7 | 0.00 | 0.00 | 0.00 | 35 | 1014.1 |
| 20260906043021 | 22 | 256 | 9.7 | 17.7 | 0.00 | 0.00 | 0.00 | 35 | 1013.9 |
| 20260906042520 | 22 | 256 | 9.7 | 25.7 | 0.00 | 0.00 | 0.00 | 35 | 1013.8 |
| 20260906042021 | 22 | 215 | 19.3 | 25.7 | 0.00 | 0.00 | 0.00 | 35 | 1013.8 |
| 20260906041521 | 22 | 235 | 16.1 | 32.2 | 0.00 | 0.00 | 0.00 | 36 | 1013.8 |
| 20260906041020 | 22 | 225 | 19.3 | 32.2 | 0.00 | 0.00 | 0.00 | 36 | 1013.8 |
| 20260906040520 | 22 | 221 | 16.1 | 25.7 | 0.00 | 0.00 | 0.00 | 37 | 1013.9 |
| 20260906040027 | 21 | 271 | 16.1 | 25.7 | 0.00 | 0.00 | 0.00 | 37 | 1014.1 |
| 20260906035519 | 21 | 163 | 11.3 | 22.5 | 0.00 | 0.00 | 0.00 | 36 | 1014.4 |
| 20260906035021 | 21 | 196 | 4.8 | 14.5 | 0.00 | 0.00 | 0.00 | 35 | 1014.2 |
| 20260906034518 | 22 | 196 | 8.0 | 14.5 | 0.00 | 0.00 | 0.00 | 35 | 1013.9 |
| 20260906034018 | 22 | 206 | 8.0 | 12.9 | 0.00 | 0.00 | 0.00 | 34 | 1013.6 |
| 20260906033518 | 22 | 282 | 4.8 | 8.0 | 0.00 | 0.00 | 0.00 | 33 | 1013.6 |
| 20260906033020 | 22 | 282 | 1.6 | 6.4 | 0.00 | 0.00 | 0.00 | 34 | 1013.5 |
| 20260906032517 | 22 | 282 | 3.2 | 6.4 | 0.00 | 0.00 | 0.00 | 34 | 1013.5 |
| 20260906032117 | 21 | 282 | 1.6 | 6.4 | 0.00 | 0.00 | 0.00 | 35 | 1013.6 |
| 20260906031518 | 21 | 282 | 3.2 | 8.0 | 0.00 | 0.00 | 0.00 | 36 | 1013.5 |
| 20260906031017 | 21 | 282 | 4.8 | 9.7 | 0.00 | 0.00 | 0.00 | 36 | 1013.5 |
| 20260906030517 | 21 | 282 | 4.8 | 9.7 | 0.00 | 0.00 | 0.00 | 36 | 1013.3 |
| 20260906030019 | 21 | 282 | 4.8 | 9.7 | 0.00 | 0.00 | 0.00 | 36 | 1013.3 |
| 20260906025516 | 21 | 282 | 4.8 | 9.7 | 0.00 | 0.00 | 0.00 | 36 | 1013.1 |
| 20260906025017 | 22 | 282 | 4.8 | 11.3 | 0.00 | 0.00 | 0.00 | 35 | 1013.1 |
| 20260906024532 | 22 | 282 | 6.4 | 11.3 | 0.00 | 0.00 | 0.00 | 35 | 1013.0 |
| 20260906024016 | 21 | 263 | 9.7 | 12.9 | 0.00 | 0.00 | 0.00 | 36 | 1012.9 |
| 20260906023516 | 21 | 230 | 6.4 | 9.7 | 0.00 | 0.00 | 0.00 | 37 | 1012.9 |
| 20260906023019 | 22 | 286 | 4.8 | 14.5 | 0.00 | 0.00 | 0.00 | 36 | 1013.0 |
| 20260906022515 | 22 | 275 | 8.0 | 19.3 | 0.00 | 0.00 | 0.00 | 36 | 1012.9 |
| 20260906022015 | 22 | 268 | 14.5 | 19.3 | 0.00 | 0.00 | 0.00 | 36 | 1012.8 |
| 20260906021515 | 22 | 235 | 8.0 | 20.9 | 0.00 | 0.00 | 0.00 | 36 | 1012.9 |
| 20260906021015 | 22 | 230 | 9.7 | 20.9 | 0.00 | 0.00 | 0.00 | 36 | 1012.9 |
| 20260906020514 | 22 | 217 | 9.7 | 17.7 | 0.00 | 0.00 | 0.00 | 37 | 1012.9 |
| 20260906020014 | 22 | 179 | 11.3 | 20.9 | 0.00 | 0.00 | 0.00 | 37 | 1013.1 |
| 20260906015514 | 22 | 185 | 16.1 | 25.7 | 0.00 | 0.00 | 0.00 | 37 | 1013.2 |
| 20260906015014 | 23 | 183 | 14.5 | 25.7 | 0.00 | 0.00 | 0.00 | 36 | 1013.1 |
| 20260906014521 | 23 | 199 | 9.7 | 20.9 | 0.00 | 0.00 | 0.00 | 34 | 1013.0 |
| 20260906014013 | 23 | 235 | 6.4 | 24.1 | 0.00 | 0.00 | 0.00 | 35 | 1013.0 |
| 20260906013513 | 23 | 273 | 14.5 | 30.6 | 0.00 | 0.00 | 0.00 | 35 | 1012.8 |
| 20260906013033 | 23 | 310 | 20.9 | 30.6 | 0.00 | 0.00 | 0.00 | 34 | 1012.7 |
| 20260906012517 | 23 | 280 | 14.5 | 22.5 | 0.00 | 0.00 | 0.00 | 34 | 1012.8 |
| 20260906012012 | 23 | 302 | 12.9 | 24.1 | 0.00 | 0.00 | 0.00 | 34 | 1012.8 |
| 20260906011512 | 23 | 298 | 14.5 | 22.5 | 0.00 | 0.00 | 0.00 | 34 | 1012.8 |
| 20260906011012 | 23 | 280 | 12.9 | 24.1 | 0.00 | 0.00 | 0.00 | 34 | 1012.7 |
| 20260906010512 | 23 | 314 | 14.5 | 24.1 | 0.00 | 0.00 | 0.00 | 34 | 1012.8 |
| 20260906010012 | 23 | 283 | 12.9 | 20.9 | 0.00 | 0.00 | 0.00 | 34 | 1012.7 |
| 20260906005511 | 23 | 321 | 12.9 | 20.9 | 0.00 | 0.00 | 0.00 | 33 | 1012.8 |
| 20260906005013 | 23 | 302 | 9.7 | 24.1 | 0.00 | 0.00 | 0.00 | 33 | 1012.8 |
| 20260906004511 | 23 | 300 | 11.3 | 32.2 | 0.00 | 0.00 | 0.00 | 33 | 1012.8 |
| 20260906004011 | 23 | 338 | 12.9 | 22.5 | 0.00 | 0.00 | 0.00 | 33 | 1012.8 |
| 20260906003511 | 23 | 312 | 12.9 | 22.5 | 0.00 | 0.00 | 0.00 | 34 | 1012.9 |
| 20260906003010 | 23 | 310 | 12.9 | 25.7 | 0.00 | 0.00 | 0.00 | 33 | 1012.9 |
| 20260906002509 | 23 | 329 | 9.7 | 22.5 | 0.00 | 0.00 | 0.00 | 34 | 1013.0 |
| 20260906002011 | 23 | 326 | 11.3 | 22.5 | 0.00 | 0.00 | 0.00 | 34 | 1012.9 |
| 20260906001512 | 23 | 315 | 9.7 | 17.7 | 0.00 | 0.00 | 0.00 | 34 | 1013.0 |
| 20260906001009 | 23 | 281 | 11.3 | 27.4 | 0.00 | 0.00 | 0.00 | 34 | 1013.0 |
| 20260906000509 | 24 | 323 | 11.3 | 27.4 | 0.00 | 0.00 | 0.00 | 33 | 1012.9 |
| 20260906000010 | 25 | 299 | 14.5 | 24.1 | 0.00 | 0.00 | 0.00 | 31 | 1012.8 |
| 20260905235508 | 25 | 296 | 14.5 | 24.1 | 0.00 | 0.00 | 0.00 | 29 | 1012.8 |
| 20260905235009 | 25 | 303 | 6.4 | 16.1 | 0.00 | 0.00 | 0.00 | 28 | 1012.8 |
| 20260905234509 | 25 | 290 | 4.8 | 19.3 | 0.00 | 0.00 | 0.00 | 28 | 1012.7 |
| 20260905234008 | 25 | 278 | 11.3 | 27.4 | 0.00 | 0.00 | 0.00 | 28 | 1012.8 |
| 20260905233509 | 25 | 288 | 11.3 | 27.4 | 0.00 | 0.00 | 0.00 | 28 | 1012.9 |
| 20260905233010 | 25 | 244 | 4.8 | 24.1 | 0.00 | 0.00 | 0.00 | 28 | 1012.9 |
| 20260905232507 | 25 | 258 | 8.0 | 19.3 | 0.00 | 0.00 | 0.00 | 27 | 1012.8 |
| 20260905232008 | 26 | 148 | 4.8 | 24.1 | 0.00 | 0.00 | 0.00 | 27 | 1012.8 |
| 20260905231508 | 26 | 132 | 11.3 | 30.6 | 0.00 | 0.00 | 0.00 | 27 | 1012.7 |
| 20260905231008 | 26 | 120 | 14.5 | 30.6 | 0.00 | 0.00 | 0.00 | 26 | 1012.6 |
| 20260905230507 | 26 | 147 | 9.7 | 19.3 | 0.00 | 0.00 | 0.00 | 26 | 1012.6 |
| 20260905230007 | 26 | 62 | 0.0 | 11.3 | 0.00 | 0.00 | 0.00 | 26 | 1012.5 |
| 20260905225506 | 26 | 76 | 3.2 | 11.3 | 0.00 | 0.00 | 0.00 | 26 | 1012.4 |
| 20260905225006 | 26 | 94 | 1.6 | 8.0 | 0.00 | 0.00 | 0.00 | 25 | 1012.4 |
| 20260905224507 | 27 | 8 | 0.0 | 9.7 | 0.00 | 0.00 | 0.00 | 26 | 1012.4 |
| 20260905224005 | 27 | 106 | 0.0 | 9.7 | 0.00 | 0.00 | 0.00 | 26 | 1012.3 |
| 20260905223505 | 26 | 104 | 4.8 | 11.3 | 0.00 | 0.00 | 0.00 | 26 | 1012.4 |
| 20260905223005 | 26 | 71 | 3.2 | 12.9 | 0.00 | 0.00 | 0.00 | 26 | 1012.3 |